GFSNIL_con_mucape_000.txt.gz
CAPE
225 4 16 22 81 3 3 6 33 25 73 165 228 316 467 573 624 840 1098 981 1379 1761
357 302 104 180 246 20 112 1 3 52 127 196 279 462 568 494 540 571 915 979 1171 1398
78 159 126 125 172 197 231 211 225 211 216 258 330 330 456 584 522 733 757 716 886 1012
83 54 11 24 158 251 274 358 354 476 519 513 533 514 524 490 277 391 476 488 678 804
63 103 45 52 125 190 224 369 431 525 784 728 695 699 741 628 537 508 408 421 608 756
95 80 87 101 62 129 288 409 541 726 716 632 731 701 682 729 492 371 282 200 232 56
235 169 99 103 206 257 466 621 788 797 819 864 857 793 784 654 475 289 136 52 34 9
263 360 169 415 552 566 516 481 669 663 756 744 721 690 732 400 432 263 148 61 5 2
449 646 773 565 624 599 475 430 576 641 636 804 786 399 26 50 339 165 191 145 7 7
736 777 775 361 535 578 632 669 567 584 652 826 873 394 62 36 275 203 127 170 175 9
728 808 772 490 414 553 705 635 577 604 730 765 707 449 98 28 341 431 241 181 201 92
718 795 837 729 679 735 671 427 402 582 784 807 820 218 313 24 442 697 381 334 262 169
622 887 801 769 716 670 635 476 504 564 759 811 720 412 334 145 827 767 999 358 535 111
918 1295 1237 828 786 723 866 799 805 930 924 768 338 703 259 132 423 1090 732 690 223 376

GFSNIL_con_mucape_003.txt.gz
CAPE
407 47 45 68 199 35 6 6 93 140 113 164 184 262 661 459 421 874 760 738 1188 1206
510 409 332 338 355 86 200 73 42 102 196 265 249 228 512 296 501 562 951 706 1068 898
30 187 320 296 324 335 340 328 275 202 210 280 367 776 653 689 681 808 406 397 598 905
87 97 179 149 125 274 384 427 433 306 315 467 529 637 772 760 719 523 844 832 691 810
208 233 136 157 136 187 214 334 375 389 640 520 533 967 665 701 658 737 618 434 364 176
300 334 385 384 213 159 136 311 393 632 648 602 645 635 774 785 710 796 564 393 323 125
301 569 546 516 350 447 516 568 650 724 729 574 642 774 860 830 835 701 595 486 303 127
411 637 764 679 617 552 533 479 591 897 750 425 621 400 874 930 722 744 681 516 450 152
435 606 787 800 701 666 618 737 903 555 787 937 453 205 306 246 564 778 685 533 386 423
688 901 945 659 573 581 830 1328 1201 667 647 946 1276 233 301 248 400 702 840 763 603 305
842 914 942 880 862 1101 1023 1367 1222 949 1031 1072 873 195 265 199 435 720 1006 1104 1024 780
897 1010 1083 1097 1251 1320 1276 875 931 1154 1166 1405 1573 504 231 197 532 974 1057 1066 1094 783
905 998 1066 1333 1206 1216 1490 744 574 574 841 784 1499 880 174 146 400 1221 831 947 921 252
1162 1714 1409 1438 905 1315 1182 1236 1081 643 1228 1121 893 368 192 36 405 431 535 571 529 191

GFSNIL_con_mucape_006.txt.gz
CAPE
818 1053 1165 1737 1103 696 720 844 892 701 919 1047 1083 1050 971 749 729 756 633 561 625 762
1784 1314 1065 845 935 816 1308 545 801 788 945 1171 1175 945 1135 757 688 782 646 588 561 352
1716 1566 1456 1146 980 1081 1336 1221 1164 1030 1040 1081 1200 1194 940 729 576 534 553 533 642 681
702 824 1345 1072 1030 1119 1512 1471 1396 1297 1168 1087 986 1161 900 972 746 481 674 651 532 599
1251 953 919 1066 951 1106 1289 1463 1418 1413 1248 941 972 974 693 760 765 738 673 755 677 581
1363 1294 1393 1317 1295 1259 1282 1318 1436 1342 1181 989 1053 1134 969 944 769 913 936 869 674 560
1510 1500 1346 1651 1776 1444 1607 1595 1491 1482 1436 1201 1189 1153 967 853 797 686 878 925 707 668
1799 1671 1756 1846 1649 1611 1735 1549 1758 1604 1483 1438 1205 602 996 784 904 1008 962 1039 783 652
1711 1654 1613 1927 2117 1964 2031 1852 1804 1482 1463 1451 940 216 181 499 1064 1031 980 913 833 681
1661 1685 1908 1887 1945 2056 1813 1955 1917 1682 1485 1499 1310 679 198 385 680 861 824 952 930 547
1789 1809 2048 2032 2027 2206 2193 2194 1828 1576 1642 1485 1127 567 152 157 650 848 893 969 819 507
1795 1919 2008 2139 1962 2180 1943 1948 1746 1675 1535 1237 1346 412 327 122 643 753 742 1054 759 628
1986 2148 2129 2043 2018 1773 2105 1476 994 1015 1291 1264 1339 283 115 55 12 99 426 772 755 436
2249 2551 2549 2614 2312 1917 1145 845 1418 1416 1341 1289 1014 342 74 69 54 154 436 140 208 478

GFSNIL_con_mucape_009.txt.gz
CAPE
0 0 14 389 124 0 0 20 130 23 141 99 155 222 190 58 12 63 41 21 82 20
34 30 178 45 1 1 199 0 59 44 47 142 286 361 162 77 110 23 1 42 55 2
335 206 115 86 10 24 0 87 60 159 176 181 98 163 307 60 47 0 3 34 73 60
639 387 205 133 28 35 116 354 303 264 192 137 204 303 344 158 131 121 191 151 117 90
13 8 151 77 30 24 69 116 179 139 212 197 128 156 169 109 88 153 121 182 144 173
127 23 38 106 52 54 61 53 9 109 144 128 129 133 172 312 204 219 102 213 268 221
176 109 151 180 196 208 203 143 271 439 283 227 326 307 403 366 311 218 133 237 465 313
182 211 300 331 433 465 197 373 327 381 394 283 483 544 174 139 271 271 257 402 318 384
359 329 361 317 399 374 244 353 597 333 239 324 426 428 283 174 76 185 244 210 246 333
266 282 368 460 585 842 706 721 197 425 516 267 467 625 290 204 43 64 140 259 214 136
400 495 532 636 673 682 741 353 418 585 327 490 600 505 325 101 75 71 199 314 374 351
524 505 652 880 893 774 802 604 664 646 400 526 414 204 93 28 6 5 6 11 73 183
788 830 952 1024 1111 1075 721 556 658 436 427 256 138 140 32 1 7 15 5 61 31 4
1153 1146 1131 1149 1147 950 898 687 392 189 424 319 231 100 11 2 27 11 17 17 2 0

GFSNIL_con_mucape_015.txt.gz
CAPE
539 0 0 0 0 0 0 1 0 0 0 0 0 0 0 0 0 0 0 1 0 0
102 0 0 0 0 0 0 0 0 0 0 0 0 0 0 0 0 0 0 0 0 0
227 0 0 0 0 0 0 0 0 0 0 0 0 0 0 0 0 0 0 0 0 0
89 42 0 1 18 15 1 0 0 0 0 0 0 0 0 0 0 0 0 0 0 5
204 79 98 8 5 0 0 0 0 5 12 0 0 0 0 0 0 0 5 34 29 32
218 78 66 49 5 5 0 0 0 18 0 0 0 0 0 0 0 0 13 25 45 60
418 233 87 110 49 31 16 0 0 11 0 0 0 18 22 0 15 44 8 0 52 82
677 334 139 247 265 76 37 11 52 21 21 3 24 125 36 0 35 14 15 42 55 42
220 390 130 285 10 49 37 10 24 118 100 81 132 168 14 67 54 52 32 5 19 12
487 174 42 76 71 31 41 25 120 200 239 164 221 116 41 44 79 63 54 17 16 11
351 260 234 163 318 85 91 139 236 338 356 358 363 139 52 94 83 64 9 0 1 0
450 438 199 159 411 302 207 277 330 404 497 497 234 86 65 43 46 3 7 8 0 0
860 434 280 341 419 468 267 328 370 470 508 342 206 72 52 22 48 48 5 0 0 0
805 467 609 507 489 401 286 330 495 493 402 327 172 58 25 58 26 0 4 0 0 0

GFSNIL_con_mucape_021.txt.gz
CAPE
2655 2276 1657 1641 752 326 237 126 386 568 598 422 203 137 100 85 118 107 136 229 170 65
2677 2368 1696 1443 866 371 234 151 316 421 463 207 63 110 225 94 264 222 270 204 275 196
2145 1905 1667 1196 737 99 137 181 350 391 275 183 172 202 293 145 90 195 206 165 241 276
1804 1311 1311 1089 87 1 22 94 302 257 198 283 288 249 290 253 174 235 300 296 308 382
967 954 1101 780 92 30 27 13 59 193 269 317 327 267 332 299 102 258 291 205 365 379
698 851 1065 133 21 2 17 32 33 90 273 260 328 353 393 309 310 288 209 292 391 418
651 807 901 151 0 8 0 0 15 16 65 238 427 373 308 277 362 387 361 384 490 552
1000 880 992 665 539 297 72 22 16 5 36 131 240 223 274 319 522 756 652 555 605 418
1196 1146 1130 1047 752 493 333 260 90 9 27 177 182 32 0 217 724 891 746 670 631 500
1240 1258 1273 1308 1134 856 543 359 95 55 114 303 360 65 36 49 619 954 860 790 721 476
1194 1187 1214 1276 1311 1117 799 466 263 196 352 365 584 158 101 140 450 736 801 785 742 407
1185 1152 1193 1251 1159 1006 556 327 182 275 430 516 850 175 113 67 76 93 154 428 182 45
1225 1230 1284 1294 1170 849 530 360 288 283 361 324 639 118 52 50 38 50 54 15 22 39
1206 1274 1236 1143 1094 767 562 426 461 503 709 276 320 52 44 45 23 40 59 34 35 22

GFSNIL_con_mucape_024.txt.gz
CAPE
3684 3044 2953 3048 2212 1179 328 342 884 935 904 883 828 628 331 93 144 81 90 83 198 25
3608 3245 3036 2844 2966 1604 1101 374 602 857 827 873 822 450 331 180 218 162 108 60 198 216
3020 3197 3303 3193 2818 1797 1202 626 492 715 702 686 611 352 588 192 156 228 47 69 107 296
2929 2933 3104 2861 2536 1840 1032 809 936 1018 637 726 443 525 688 440 81 190 289 268 247 312
3181 3081 2967 2625 1815 1101 732 485 693 601 734 692 658 661 569 441 97 238 307 252 320 365
2970 2749 2319 1939 1285 497 398 331 122 430 487 470 602 906 800 528 329 323 293 313 396 386
2970 2731 2358 2117 889 449 352 357 327 89 480 717 754 592 429 552 516 430 417 539 604 558
3507 2176 1921 2540 1446 1041 776 445 198 180 239 479 392 225 526 522 527 601 745 735 674 709
2772 1877 2360 1952 1427 971 909 715 414 286 271 410 201 0 25 424 496 597 893 881 815 782
2740 2145 1893 1753 1308 1392 1042 856 874 646 417 386 390 31 17 37 397 553 1150 1089 1199 889
2732 2194 1992 1935 1444 1216 1279 1329 1307 1017 705 689 469 323 198 33 365 813 1124 222 167 203
2368 2256 1986 1890 1616 1215 1276 1310 1317 1052 783 1112 961 470 415 171 440 575 114 97 94 101
2349 2270 2119 1639 1769 1421 1269 1134 989 927 1218 672 1043 510 518 283 641 330 153 93 47 13
2409 2161 2039 1642 1497 1292 1221 928 889 897 1031 1044 1155 1018 494 183 232 193 258 118 35 49

GFSNIL_con_mucape_027.txt.gz
CAPE
4949 3184 2952 3368 2044 1439 583 519 2514 1860 1809 1104 1325 1212 765 181 138 217 141 89 80 10
4862 4595 2957 3556 4148 2295 2246 631 1679 1504 1335 1537 810 691 513 269 216 215 265 126 210 175
4624 4702 4602 4695 4447 3631 2934 1595 1821 1399 1504 1447 1189 1384 1317 837 888 549 183 49 357 159
4386 4116 4476 4001 4178 4025 3621 2597 1914 1882 1641 1550 966 1128 1369 1190 445 474 675 402 505 758
4515 4327 4137 4291 4215 4231 3532 2788 2086 1927 1592 1302 1147 1080 1180 840 368 352 462 756 941 403
4566 4400 4235 4425 4398 4109 3316 2508 1699 1844 1599 1038 1014 1161 1253 1011 956 696 363 365 397 361
4568 4557 4395 4630 4302 3892 2937 2299 1714 1542 1506 978 1043 693 1006 685 682 543 530 394 815 506
4737 4749 4776 4371 4141 3359 2813 1543 1564 1536 632 594 279 431 1125 846 640 789 532 772 586 1161
4828 4783 4537 4143 4175 3150 2160 1561 1426 1060 434 471 510 380 323 746 541 1169 1194 1276 1349 1317
4844 4751 4167 3588 3632 3033 2342 1698 1460 1035 737 766 996 780 508 297 612 975 1336 1349 1502 1158
4651 4297 3634 3347 3651 3245 2442 1854 1123 1147 1066 1094 1188 1032 736 404 621 1136 1324 1345 1327 1212
4204 4105 3575 2751 3104 3081 2693 1804 1458 1221 1147 1244 1320 1137 917 523 447 696 1355 1509 795 589
4036 3614 3029 2778 2787 2912 2387 1926 1264 1088 1222 1041 1226 1067 1044 688 1725 1507 915 1431 951 194
3192 3311 3118 2974 2766 2082 1639 1186 1205 942 905 981 1057 1344 741 544 1536 1313 1536 954 642 236

GFSNIL_con_mucape_030.txt.gz
CAPE
3728 3920 3662 3526 3059 1978 2169 1447 2010 2354 2619 2165 1718 1706 1221 797 500 727 668 424 764 324
4229 3728 3325 3630 3193 3392 2530 2848 2021 2071 2398 1999 1693 1332 1370 791 661 856 1176 818 938 822
4262 4227 3696 3475 3639 2591 3657 2635 2293 2087 2052 1829 1710 1549 1620 854 1239 1125 1094 795 875 903
4198 4370 3864 3580 3270 3449 3234 2815 2164 1950 1759 1807 1705 1546 1336 1136 1113 1039 956 568 706 459
4331 4312 4233 3392 3868 3857 3226 2902 2061 1928 1854 1619 1485 1407 1323 837 489 974 1050 957 1025 820
4199 4176 4030 3955 3239 3725 3594 3179 2167 1972 1761 1657 1332 1298 1119 1036 854 909 398 932 930 830
4185 4099 3934 3950 3837 3865 3940 3402 2329 1970 1741 1483 1218 1265 1099 1182 1121 827 736 852 852 922
4286 4208 4224 4053 4072 3958 3945 3472 2578 1936 1714 1356 771 1071 997 1128 991 884 792 777 873 908
4037 4383 4426 4331 4270 3978 3852 3244 2560 1799 1417 1146 649 468 283 906 866 973 891 866 1211 1180
4218 4460 4438 4453 4217 4060 3734 3079 2264 1796 1260 880 803 593 403 623 752 801 856 1086 1240 1303
4427 4587 4573 4458 4228 4014 3607 2686 2347 1942 1476 1045 1143 810 602 553 593 717 1123 853 1301 1285
4623 4723 4577 4313 4064 3565 3326 2827 2644 2266 1337 1208 1336 934 855 596 564 702 861 789 1191 1268
4795 4658 4418 4070 3702 3840 3496 2572 2405 2262 1459 1128 1217 940 799 779 694 637 705 1075 998 693
4694 4650 4426 3709 3235 3114 2899 2649 2335 2063 1485 1511 1038 1115 814 679 671 1012 1043 839 971 1181

GFSNIL_con_mucape_033.txt.gz
CAPE
1989 2621 1817 1776 1999 1286 1114 919 978 1404 1266 868 697 159 252 126 180 76 5 53 0 32
1867 2051 2808 2508 1622 1820 1262 935 646 1597 1381 972 710 510 351 123 34 101 25 0 66 1
2516 2242 2361 2953 2405 1756 1796 1518 862 1496 1447 1166 928 542 311 244 258 238 200 109 13 12
2893 2828 2529 2452 2650 2092 1641 1733 1375 1450 1438 1205 980 598 522 259 309 415 63 202 72 198
2943 3252 3158 2634 2316 2199 2166 1705 1394 1397 1421 1205 1065 812 600 423 307 166 380 199 73 21
3223 3133 3435 3194 2745 2346 2349 2026 1638 1340 1300 1137 981 883 582 428 325 429 313 262 111 102
3365 3334 3344 3503 3041 2935 2723 2371 2045 1634 1467 1253 1034 1007 872 673 417 263 390 403 334 235
3380 3455 3506 3455 3449 2923 3010 2737 2427 2077 1759 1321 1010 967 825 765 627 489 406 402 333 311
3173 3560 3559 3504 3423 3366 2788 3029 2875 2501 2197 1754 1464 1284 1028 703 666 598 634 384 404 339
3184 3394 3537 3519 3434 3442 3338 3265 3315 3153 2938 2535 2030 1652 1115 778 607 732 751 494 410 568
2924 3413 3641 3587 3543 3474 3435 3401 3394 3260 3076 2673 2908 1748 1026 618 700 777 691 644 695 531
2998 3393 3706 3717 3723 3615 3574 3452 3334 3131 3141 2274 2493 1497 987 676 560 565 614 564 730 690
3035 3487 3898 3816 3844 3707 3587 3458 3260 2707 2253 1927 1676 1181 785 684 518 660 586 490 477 474
3701 3981 4059 3978 3859 3738 3363 3138 2901 2451 1965 1444 1414 1263 990 741 659 646 845 729 629 490

GFSNIL_con_mucape_036.txt.gz
CAPE
1266 1121 876 1114 763 1088 1015 1163 1065 1162 1167 701 585 201 130 27 0 0 0 0 0 0
1359 1833 1844 1430 1306 1125 1026 744 905 1096 794 719 469 391 251 16 6 10 2 0 0 0
1038 1429 1895 2161 1542 1338 1338 1274 1017 848 625 697 526 610 337 62 34 12 27 0 0 0
1219 1071 1456 1972 2319 1890 1426 1384 1235 1032 869 658 634 687 512 188 77 19 10 71 16 0
1620 1522 1247 1449 1845 2398 2212 1469 1523 1460 1097 916 839 796 694 240 139 143 64 84 147 19
2119 2075 1877 1690 1575 2049 2312 2056 1533 1554 1283 1207 997 942 833 266 198 171 178 192 81 132
2256 2456 2411 2253 1945 1852 2063 2259 1717 1599 1560 1488 1467 1277 956 643 379 273 235 95 189 180
2386 2551 2666 2755 2633 2285 2016 2003 2004 1897 1691 1514 1330 1285 1224 1060 786 455 302 240 297 330
2760 2787 2732 2863 3025 2715 2487 2281 2114 1961 1807 1649 1616 1557 1410 1266 1031 969 810 321 245 339
2939 2989 2968 2903 3066 3066 2745 2713 2678 2427 2261 2173 2190 2034 1850 1649 1502 1266 1094 438 222 255
2992 2980 3054 3113 3073 3077 2958 2861 2833 2814 2806 2772 2718 2615 2532 2370 2263 1973 932 477 371 474
2890 2896 3136 3149 3124 3075 3084 3063 3000 2972 2849 2919 2930 2963 2882 2274 1678 1150 773 608 659 878
2798 2904 3071 3198 3185 3148 3164 3092 3126 3130 3119 3224 3275 3069 2571 1624 1040 725 721 782 697 739
2531 2724 3052 3229 3236 3238 3216 3260 3277 3277 3004 2489 3061 2726 1735 1006 780 468 323 362 519 616

GFSNIL_con_mucape_042.txt.gz
CAPE
444 488 458 614 621 437 512 715 1065 1112 1138 1175 1131 833 678 429 232 6 0 0 0 0
494 510 509 638 716 656 476 920 1148 1263 1272 1277 1189 937 780 269 190 39 19 0 0 0
561 526 584 653 751 715 613 499 771 1006 973 1274 1293 965 881 384 346 35 25 0 0 0
681 632 620 667 710 759 751 602 455 763 897 1047 1204 941 993 620 507 88 30 0 0 0
799 713 668 671 670 722 821 752 432 693 903 844 1095 809 998 790 573 249 178 0 0 0
847 850 795 762 844 736 822 812 516 749 949 816 1008 784 775 824 653 402 290 182 1 0
798 834 925 1008 1071 1121 961 904 674 913 1081 1070 975 1039 902 942 853 702 474 423 215 43
788 770 801 857 987 1129 1293 1096 900 828 1191 1111 1168 1203 1200 1106 1223 1287 931 769 792 609
976 986 906 866 838 905 1242 1424 1174 1037 1039 1265 1351 1268 1244 1318 1370 1527 1333 1397 1351 1037
1081 1193 1169 1089 979 907 889 1167 1411 1250 1135 1154 1410 1719 1630 1512 1566 1681 1589 1686 1704 1356
1219 1263 1380 1368 1330 1254 1086 941 1057 1276 1255 1212 1235 1510 1758 1867 1748 1620 1573 1652 1666 1371
1478 1453 1452 1616 1684 1626 1568 1456 1294 1298 1309 1256 1289 1241 1229 1310 1416 1526 1625 1672 1738 1823
1644 1673 1615 1706 1867 1917 1950 1962 1858 1683 1499 1504 1536 1575 1509 1316 1415 1625 1751 1879 2136 1701
1931 1949 1926 1882 1911 2056 2086 2248 2258 2121 1947 1798 1707 1878 1868 1713 1663 1806 2115 2139 1932 1403

GFSNIL_con_mucape_045.txt.gz
CAPE
1960 1652 1698 1800 1323 1244 1269 1361 2002 2222 2314 2400 2238 2083 1674 1113 718 420 203 166 92 63
1833 1860 1716 2070 2174 1392 2081 1394 1656 1964 2149 2296 2229 2119 1717 1206 795 338 267 225 200 95
1707 1862 1915 2074 2136 2055 2255 1954 1721 2163 2460 2520 2253 2117 1759 1370 1043 469 227 161 205 156
1726 1828 1990 2011 2138 2147 2308 2424 2408 2248 2382 2394 2223 2095 1810 1535 1077 648 537 240 252 242
1922 1974 1992 2050 2108 2162 2220 2330 2430 2453 2244 2258 2220 2146 1859 1604 1158 905 716 515 315 231
1957 1949 1993 2055 2191 2242 2189 2242 2202 2264 2409 2161 2178 2081 1904 1766 1465 1038 879 678 571 400
1868 1962 1963 2074 2197 2249 2238 2223 2282 2267 2369 2446 2332 2066 1817 1696 1627 1319 1018 840 755 617
2081 2183 2215 2249 2245 2303 2371 2220 2282 2203 2234 2352 2343 1825 2107 1867 1732 1558 1302 1084 883 777
2128 2245 2268 2325 2369 2419 2438 2428 2440 2277 2206 2238 1849 1290 1180 1650 1885 1587 1801 1831 1289 978
2188 2230 2314 2357 2446 2507 2566 2662 2591 2490 2302 2247 2247 1098 1027 1072 2152 2103 2178 2157 1911 1449
2289 2287 2327 2364 2370 2399 2454 2594 2752 2684 2624 2402 2249 1180 981 1039 1635 2383 2462 2249 1994 1653
2252 2377 2483 2484 2416 2375 2341 2357 2452 2740 2848 2783 2646 1330 1136 1117 1444 2166 2490 2065 1856 1650
2380 2435 2508 2591 2579 2593 2503 2390 1999 2424 2760 2427 2875 1788 1306 1169 1565 2016 2076 1762 1715 1634
2651 2682 2533 2701 2767 2858 2594 2600 2822 2761 2690 2782 2461 2590 1516 1265 1648 1926 1640 1206 906 1040

GFSNIL_con_mucape_048.txt.gz
CAPE
3643 1945 1845 2506 1737 1639 1535 1246 1637 2010 2396 2751 2560 2949 2926 2613 2171 1732 1670 1106 529 0
3384 3267 2229 3138 3234 2047 2801 1535 1650 1858 2359 2411 2643 2919 3017 2631 2401 1746 1840 1315 994 285
3198 3385 3410 3557 3535 3421 3307 2958 2022 2129 2101 2434 2642 2945 3145 2748 2583 2232 1623 1172 1032 783
3139 2788 3189 2976 3599 3705 3763 3824 3255 2983 2433 2222 2688 3187 3314 3216 2556 2424 1986 1276 1033 1104
3424 3332 3080 3317 3440 3649 3719 4009 4022 3452 3142 2733 2586 3320 3272 3074 2476 2491 2153 1631 1260 1130
3307 3330 3503 3635 3565 3591 3723 3917 3577 3867 3981 3532 3127 3233 3200 3035 2841 2568 2353 1877 1722 1255
3343 3405 3398 3554 3573 3562 3758 3901 4008 4007 4187 3940 3597 3317 3056 2845 2920 2941 2458 2172 1785 1571
3304 3560 3626 3687 3705 3769 3854 3836 3920 4000 4063 3934 3570 2623 3369 3465 3369 3530 2922 2468 2074 1742
3403 3742 3674 3727 3827 3898 3868 3961 4017 3946 3928 3778 2983 1813 1433 2574 3397 3493 3516 3422 3002 2376
3535 3696 3784 3602 3754 3947 3967 3776 3996 3922 3915 3880 3837 1970 1562 1364 3262 3472 3745 3805 3600 2402
3640 3655 3760 3894 3909 4044 3914 3844 4063 4026 3988 3966 3847 2469 1782 1371 2628 3331 3819 3855 3815 3720
3539 3748 3876 3963 3975 4053 3596 3619 3381 3484 4004 4265 3733 2503 2116 1701 2310 2748 3562 3965 3869 3777
3719 3894 3956 3941 3920 3714 3635 2997 2815 2895 3602 3221 3645 3015 2479 1897 1792 2249 2285 3149 3353 2212
3926 4160 4076 4208 4001 3790 3507 3418 3601 3367 3664 3515 3425 3527 2658 2508 2128 1557 1790 2330 2556 2919